Regional Weather Roundup
Issued by NWS

Home | Current Version | Previous Version | Graphics & Text | Print | Product List | Glossary On
Versions: 1 2 3 4 5 6 7 8 9 10 11 12 13 14 15 16 17 18 19 20 21 22 23 24 25 26 27 28 29 30 31 32 33 34 35 36 37 38 39 40 41 42 43 44 45 46 47 48 49 50
000
ASUS45 KBOU 191807
RWRCO

WEATHER ROUNDUP FOR COLORADO
NATIONAL WEATHER SERVICE DENVER/BOULDER CO
1200 PM MDT FRI SEP 19 2014

NOTE: "FAIR" INDICATES FEW OR NO CLOUDS BELOW 12000 FEET WITH NO
SIGNIFICANT WEATHER AND/OR OBSTRUCTIONS TO VISIBILITY.

COZ001>005-013-030-031-191900-
...NORTHWEST COLORADO...

CITY           SKY/WX    TMP DP  RH WIND       PRES   REMARKS
CRAIG          SUNNY     75  44  33 E3        30.14F
HAYDEN         SUNNY     73  39  29 E5        30.16S
MEEKER         SUNNY     75  41  29 CALM      30.15F
MOUNT WERNER   NOT AVBL
STEAMBOAT SPGS SUNNY     70  42  36 CALM      30.17F
WALDEN         SUNNY     70  37  30 S3        30.25S
$$

COZ006>008-011-191900-
...WEST CENTRAL VALLEYS...

CITY           SKY/WX    TMP DP  RH WIND       PRES   REMARKS
GRAND JUNCTION SUNNY     79  42  26 S7        30.03F
MONTROSE       MOSUNNY   77  45  32 W7        30.11F
EAGLE          MOSUNNY   72  39  30 CALM      30.18
RIFLE          SUNNY     75  43  31 VRB3      30.09F
DELTA          MOSUNNY   76  47  35 CALM      30.08S
NUCLA          MOSUNNY   73  43  33 N6        30.16F
$$

COZ017>023-064>068-191900-
...SOUTHWEST COLORADO...

CITY           SKY/WX    TMP DP  RH WIND       PRES   REMARKS
DURANGO        SUNNY     73  48  41 VRB5      30.16F
CORTEZ         SUNNY     78  47  33 S5        30.13S
PAGOSA SPRINGS SUNNY     71  41  33 SW7       30.22F
TELLURIDE      NOT AVBL
WOLF CREEK PAS SUNNY     55  32  41 NE13G22   30.51S
$$

COZ009-010-012-014-032>034-037-058>063-191900-
...CENTRAL COLORADO...

CITY           SKY/WX    TMP DP  RH WIND       PRES   REMARKS
ASPEN          SUNNY     75  38  26 VRB5      30.22F
BUENA VISTA    SUNNY     76  31  19 NE6       30.21F
COPPER MTN     NOT AVBL
BERTHOUD PASS  FAIR      52  50  93 NE5       30.59S
COTTONWOOD PAS SUNNY     73  27  17 E3        30.37F
GUNNISON       SUNNY     66  37  34 W5        30.26F
KREMMLING      SUNNY     72  32  23 CALM      30.22F
LEADVILLE      SUNNY     65  31  28 W3        30.36F
MONARCH PASS   MOSUNNY   52  34  50 W9G16     30.63S
SALIDA         SUNNY     76  35  22 CALM      30.26F
SUNLIGHT       SUNNY     59  41  51 CALM      30.48R
WILKERSON PASS NOT AVBL
$$

COZ069>075-191900-
...SAN LUIS VALLEY/SANGRE DE CRISTO MOUNTAINS...

CITY           SKY/WX    TMP DP  RH WIND       PRES   REMARKS
ALAMOSA        SUNNY     70  41  34 CALM      30.21F
LA VETA PASS   SUNNY     64  37  36 CALM      30.38F
SAGUACHE       NOT AVBL
$$

COZ035-036-038>040-191900-
...NORTHERN COLORADO FRONT RANGE...

CITY           SKY/WX    TMP DP  RH WIND       PRES   REMARKS
DENVER INTL AP MOSUNNY   82  43  25 NE9       30.04F
DMNS CITY PARK   N/A     82  41  23 SE6       30.03F
AURORA         MOSUNNY   80  41  24 E10       30.06F
FRONT RANGE AP MOSUNNY   82  43  24 NE9       30.05F
ERIE MUNI ARPT SUNNY     80  41  24 E3        30.02F
BOULDER MUN AP SUNNY     77  43  29 CALM      30.03F
CENTENNIAL     MOSUNNY   79  40  24 VRB7      30.08S
BROOMFIELD     MOSUNNY   79  41  25 VRB5      30.07S
FORT COLLINS   SUNNY     79  48  34 SW8       30.01S
LONGMONT       SUNNY     82  46  29 SW7       30.03F
$$

COZ041-046-047-076>085-087-088-191900-
...PIKES PEAK/PALMER DIVIDE AND SOUTHERN FOOTHILLS...

CITY           SKY/WX    TMP DP  RH WIND       PRES   REMARKS
COLO. SPRINGS  MOSUNNY   82  37  20 E7        30.08F
A. F. ACADEMY  SUNNY     82  35  19 N10G20    30.10S
ELLICOTT       NOT AVBL
FALCON         SUNNY     82  34  17 N10G22    30.14S
FORT CARSON    SUNNY     80  44  28 VRB5      30.05F
LIMON          SUNNY     81  45  28 VRB5      30.03S
MONUMENT HILL  SUNNY     77  36  22 N16G23    30.15S
TRINIDAD       SUNNY     79  45  29 VRB6      30.05F
$$

COZ042>045-048>051-090-091-191900-
...NORTHEAST COLORADO...

CITY           SKY/WX    TMP DP  RH WIND       PRES   REMARKS
GREELEY ARPT   SUNNY     84  45  24 N7        29.98S
AKRON          SUNNY     82  44  26 VRB7      29.98F
BURLINGTON     SUNNY     83  54  36 S21G30    29.98R
WRAY           SUNNY     89  51  27 SW12      29.93S
STERLING       SUNNY     86  54  32 SE7       29.92F
HOLYOKE        SUNNY     86  48  26 SW3       29.92F
FORT MORGAN    SUNNY     85  42  21 NE5       29.97F
$$

COZ086-089-092>099-191900-
...SOUTHEAST COLORADO...

CITY           SKY/WX    TMP DP  RH WIND       PRES   REMARKS
PUEBLO         SUNNY     77  52  41 E6        29.98F
LA JUNTA       SUNNY     83  49  30 S9        29.96F
LAMAR          SUNNY     86  56  35 SW18G24   29.93F
SPRINGFIELD      N/A     80  59  48 S20G28    30.01F
$$


USA.gov is the U.S. government's official web portal to all federal, state and local government web resources and services.